Near-Earth-Asteroid Tracking Team (Jet Propulsion Laboratory)
軌道要素
Improved orbital elements by K. Muraoka,
from 21 observations 2001 Mar. 20 to Apr. 25, m.e. = +/- 0".57.
T = 2001 Jan. 27.0136 TT
Peri. = 224.1205
Node = 329.6520 (2000.0)
Incl. = 8.4026
q = 2.390401 AU
e = 0.606393
a = 6.073062 AU
n = 0.0658556
P = 14.97 years
星図
光度変化
m1 = 12.5 + 5 logΔ + 10.0 log r
軌道要素は村岡健治氏の計算によるものです。
星図は StellaNavigator Ver.2.0 for Windows
(アストロアーツ
編著 / アスキー出版局刊) で作成したものです。
光度グラフはComet for
Windowsで作成したものです。
Copyright(C) Seiichi Yoshida (comet@aerith.net). All rights reserved.